This is the latest recevied weather packets stored in our database for station/object IR1CH-3. If no packets are shown the sender has not sent any weather packets the latest 10 day(s).
| Time | Temp. | Humidity | Pressure | Rain* | Wind** | Luminosity | Snow |
|---|---|---|---|---|---|---|---|
| 1777952467 | 13.33° C | 99% | 1014.2 hPa | - | - | - | - |
| 1777950667 | 12.22° C | 99% | 1014.5 hPa | - | - | - | - |
| 1777948867 | 14.44° C | 99% | 1013.6 hPa | - | - | - | - |
| 1777947066 | 13.89° C | 99% | 1014.3 hPa | - | - | - | - |
| 1777945266 | 13.89° C | 99% | 1014.7 hPa | - | - | - | - |
| 1777943466 | 15.56° C | 99% | 1015.5 hPa | - | - | - | - |
| 1777941666 | 15° C | 99% | 1016 hPa | - | - | - | - |
| 1777939865 | 15° C | 99% | 1016 hPa | - | - | - | - |
| 1777938065 | 15.56° C | 99% | 1015.8 hPa | - | - | - | - |
| 1777936265 | 15.56° C | 99% | 1015.6 hPa | - | - | - | - |
| 1777934464 | 15.56° C | 99% | 1015.8 hPa | - | - | - | - |
| 1777932664 | 16.11° C | 98% | 1015.3 hPa | - | - | - | - |
| 1777930864 | 16.67° C | 93% | 1015.7 hPa | - | - | - | - |
| 1777929063 | 16.67° C | 92% | 1016.3 hPa | - | - | - | - |
| 1777927263 | 16.67° C | 87% | 1016.6 hPa | - | - | - | - |
| 1777925463 | 16.67° C | 87% | 1016.6 hPa | - | - | - | - |
| 1777923662 | 16.67° C | 84% | 1016.9 hPa | - | - | - | - |
| 1777921862 | 17.22° C | 86% | 1016.6 hPa | - | - | - | - |
| 1777920062 | 17.78° C | 77% | 1016.2 hPa | - | - | - | - |
| 1777918261 | 17.22° C | 79% | 1016.4 hPa | - | - | - | - |
| 1777916461 | 17.22° C | 85% | 1016.5 hPa | - | - | - | - |
| 1777914661 | 17.78° C | 76% | 1016.3 hPa | - | - | - | - |
| 1777912860 | 17.78° C | 87% | 1016.8 hPa | - | - | - | - |
| 1777911060 | 18.33° C | 82% | 1017 hPa | - | - | - | - |
| 1777909260 | 18.89° C | 83% | 1017 hPa | - | - | - | - |
* Rain since midnight (hover to see other rain measurements)
** Current wind speed in m/s (hover to see current wind gust speed)